Regional Weather Roundup
Issued by NWS

Home | Current Version | Previous Version | Text Only | Print | Product List | Glossary On
Versions: 1 2 3 4 5 6 7 8 9 10 11 12 13 14 15 16 17 18 19 20 21 22 23 24 25 26 27 28 29 30 31 32 33 34 35 36 37 38 39 40 41 42 43 44 45 46 47 48 49 50
000
ASUS43 KOAX 260110
RWRNE

WEATHER ROUNDUP FOR NEBRASKA
NATIONAL WEATHER SERVICE OMAHA NE
700 PM CST SUN FEB 25 2018

NOTES: SATELLITE DATA IS BEING USED TO AUGMENT CLOUD COVER ABOVE
       12000 FEET.
       "FAIR" INDICATES FEW OR NO CLOUDS BELOW 12,000 FEET WITH NO
       SIGNIFICANT WEATHER AND/OR OBSTRUCTIONS TO VISIBILITY.


NEZ001>004-019>022-054>056-260200-
NEBRASKA PANHANDLE

CITY           SKY/WX    TMP DP  RH WIND       PRES   REMARKS
SCOTTSBLUFF    CLEAR     34  13  41 W17       29.91R WCI  23
ALLIANCE       CLEAR     25  17  72 W13       29.89R WCI  14
CHADRON        CLEAR     22  14  71 W8        29.88R WCI  12
GORDON         FAIR      29  14  52 W10       29.87S WCI  20
KIMBALL        PTCLDY    28  13  54 SW5       29.92R WCI  22
SIDNEY         CLEAR     27  11  51 NW8       29.93R WCI  19
$$

NEZ057>060-069>072-079>082-260200-
SOUTHWEST NEBRASKA

CITY           SKY/WX    TMP DP  RH WIND       PRES   REMARKS
NORTH PLATTE   CLEAR     32  19  58 S3        29.96R
IMPERIAL       CLEAR     33  19  56 N9        29.96R WCI  25
LEXINGTON      CLEAR     35  21  57 SW5       29.98S WCI  31
MCCOOK         CLEAR     40  17  39 CALM      29.98S
OGALLALA       CLEAR     32  22  67 W6        29.96R WCI  26
$$

NEZ005>010-023>029-035>040-094-260200-
NORTH CENTRAL NEBRASKA

CITY           SKY/WX    TMP DP  RH WIND       PRES   REMARKS
VALENTINE      CLEAR     22  14  71 SW7       29.90S WCI  13
AINSWORTH      CLEAR     25  19  77 SW6       29.92R WCI  18
BROKEN BOW     CLEAR     24  16  71 W3        29.96R
O`NEILL        CLEAR     26  19  75 SW6       29.95S WCI  20
ORD            CLEAR     34  23  64 SW8       29.96R WCI  27
THEDFORD       CLEAR     30  20  65 SW5       29.93S WCI  25
$$

NEZ041-046>049-061>064-073>077-083>087-260200-
SOUTH CENTRAL NEBRASKA

CITY           SKY/WX    TMP DP  RH WIND       PRES   REMARKS
GRAND ISLAND   CLEAR     34  21  59 W7        30.00R WCI  28
AURORA         CLEAR     31  22  68 NW9       30.00R WCI  23
HASTINGS       CLEAR     31  18  58 W6        30.01R WCI  25
HEBRON         CLEAR     39  20  45 S8        30.02R WCI  33
HOLDREGE       CLEAR     36  14  41 W5        30.00R WCI  32
KEARNEY        CLEAR     36  19  50 W6        30.01R WCI  31
YORK           CLEAR     36  25  64 NW3       30.01R
$$

NEZ011>018-030>034-042>045-260200-
NORTHEAST NEBRASKA

CITY           SKY/WX    TMP DP  RH WIND       PRES   REMARKS
NORFOLK        CLEAR     27  22  81 CALM      29.97R
ALBION         CLEAR     34  24  67 CALM      29.98R
BLAIR          CLEAR     37  28  70 S5        30.00R WCI  34
COLUMBUS       CLEAR     32  25  75 CALM      30.01R
FREMONT        CLEAR     35  27  75 SE3       30.01R
TEKAMAH        CLEAR     30  25  81 SE3       30.02R
WAYNE          CLEAR     28  25  89 S3        29.98S
$$

NEZ050>053-065>068-078-088>093-260200-
SOUTHEAST NEBRASKA

CITY           SKY/WX    TMP DP  RH WIND       PRES   REMARKS
LINCOLN        PTCLDY    40  24  53 SW8       30.03R WCI  34
OMAHA EPPLEY   PTCLDY    35  28  75 S5        30.02R WCI  31
BEATRICE       CLEAR     40  25  55 S10       30.02R WCI  33
FALLS CITY     CLEAR     38  23  55 SW6       30.05R WCI  33
NEBRASKA CITY  CLEAR     37  29  74 S7        30.03R WCI  31
PLATTSMOUTH    CLEAR     39  29  69 S6        30.02R WCI  34
$$

NEZ044-045-051>053-067-260200-
OMAHA AREA

CITY           SKY/WX    TMP DP  RH WIND       PRES   REMARKS
OMAHA EPPLEY   PTCLDY    35  28  75 S5        30.02R WCI  31
BLAIR          CLEAR     37  28  70 S5        30.00R WCI  34
FREMONT        CLEAR     35  27  75 SE3       30.01R
MILLARD        CLEAR     36  30  78 CALM      30.02R
OFFUTT AFB     CLEAR     31  28  87 E3        30.02R
PLATTSMOUTH    CLEAR     39  29  69 S6        30.02R WCI  34
WAHOO          FAIR      36  29  74 CALM      30.00S
$$




USA.gov is the U.S. government's official web portal to all federal, state and local government web resources and services.